Location: Mahannah Oil Field
(37.4664°N, 96.6003°W)
Time: 08:17:14
(UTC+00:00)

Tiros 1 despin weight - Pass Details

Date: 29 January 2021
Orbit: 593 x 642 km, 48.2° (Epoch: 05 March)

Event Time Altitude Azimuth Distance (km) Brightness Sun altitude
Rises 00:28:50 0° 305° (NW) 2,862 ? -8.7°
Reaches altitude 10° 00:31:10 10° 309° (NW) 1,949 ? -9.2°
Maximum altitude 00:35:36 64° 31° (NNE) 662 ? -10.0°
Drops below altitude 10° 00:39:58 10° 113° (ESE) 1,921 ? -10.9°
Enters shadow 00:40:15 - 114° (ESE) 2,027 ? -10.9°
